[TLELIST] Archives

 

[list_settings.list_name] Current TLEs

September 14th 2021 PST

HST 1 20580U 90037B 21256.31439949 .00000830 00000-0 39170-4 0 9997 2 20580 28.4692 203.6928 0002428 289.7336 201.3829 15.09733389524286 ISS (ZARYA) 1 25544U 98067A 21257.34708416 .00002530 00000-0 55183-4 0 9996 2 25544 51.6453 261.8595 0003165 17.3736 114.2074 15.48388721302410 CXO 1 25867U 99040B 21258.02759137 .00000747 00000-0 00000-0 0 9990 2 25867 52.8836 251.3691 8453033 227.1682 0.8227 0.37807893 10783 ____________________________________________________________________ These 2-Line ...Continue Reading

[list_settings.list_name] Current TLEs

September 13th 2021 PST

HST 1 20580U 90037B 21255.90080343 .00000840 00000-0 39791-4 0 9991 2 20580 28.4692 206.4297 0002425 284.8831 113.8651 15.09732840524224 ISS (ZARYA) 1 25544U 98067A 21256.38109334 -.00001045 00000-0 -11106-4 0 9992 2 25544 51.6428 266.6300 0003165 14.0929 129.3198 15.48378000302263 CXO 1 25867U 99040B 21258.02759137 .00000747 00000-0 00000-0 0 9990 2 25867 52.8836 251.3691 8453033 227.1682 0.8227 0.37807893 10783 ____________________________________________________________________ These 2-Line ...Continue Reading

[list_settings.list_name] Current TLEs

September 12th 2021 PST

HST 1 20580U 90037B 21255.18234913 .00000835 00000-0 39468-4 0 9990 2 20580 28.4691 211.1843 0002416 276.5496 169.6311 15.09731900524372 ISS (ZARYA) 1 25544U 98067A 21255.41247965 -.00169582 00000-0 -32169-2 0 9999 2 25544 51.6444 271.4140 0003106 18.8428 121.7661 15.48281334302116 CXO 1 25867U 99040B 21255.38382709 .00000749 00000-0 00000-0 0 9995 2 25867 52.9505 251.4752 8448738 227.1725 0.8452 0.37806930 10769 ____________________________________________________________________ These 2-Line ...Continue Reading

[list_settings.list_name] Current TLEs

September 11th 2021 PST

HST 1 20580U 90037B 21253.33733914 .00000818 00000-0 38463-4 0 9995 2 20580 28.4691 223.3942 0002425 254.9757 223.6379 15.09729558524097 ISS (ZARYA) 1 25544U 98067A 21254.44508609 .00002462 00000-0 53495-4 0 9994 2 25544 51.6432 276.1989 0003474 21.5641 122.8152 15.48628317301967 CXO 1 25867U 99040B 21255.38382709 .00000749 00000-0 00000-0 0 9995 2 25867 52.9505 251.4752 8448738 227.1725 0.8452 0.37806930 10769 ____________________________________________________________________ These 2-Line ...Continue Reading

[list_settings.list_name] Current TLEs

September 10th 2021 PST

HST 1 20580U 90037B 21252.35171128 .00000751 00000-0 34425-4 0 9999 2 20580 28.4691 229.9169 0002446 243.4232 267.6585 15.09728095523680 ISS (ZARYA) 1 25544U 98067A 21253.35452546 .00002079 00000-0 46460-4 0 9999 2 25544 51.6436 281.5905 0003457 16.6931 163.7421 15.48620776301792 CXO 1 25867U 99040B 21255.38331638 .00000749 00000-0 00000-0 0 9990 2 25867 52.9504 251.4753 8448744 227.1723 0.7756 0.37806468 10766 ____________________________________________________________________ These 2-Line ...Continue Reading

[list_settings.list_name] Current TLEs

September 9th 2021 PST

HST 1 20580U 90037B 21251.69284376 .00000743 00000-0 33940-4 0 9997 2 20580 28.4692 234.2771 0002463 235.9217 287.1030 15.09727393523588 ISS (ZARYA) 1 25544U 98067A 21252.18003037 .00001330 00000-0 32699-4 0 9994 2 25544 51.6447 287.3970 0003352 12.1752 96.0942 15.48611890301610 CXO 1 25867U 99040B 21255.38283372 .00000749 00000-0 00000+0 0 9990 2 25867 52.9503 251.4752 8448734 227.1725 0.7096 0.37806526 21905 ____________________________________________________________________ These 2-Line ...Continue Reading

[list_settings.list_name] Current TLEs

September 8th 2021 PST

HST 1 20580U 90037B 21250.70125889 .00000691 00000-0 30775-4 0 9996 2 20580 28.4693 240.8391 0002498 224.5192 298.5403 15.09726074523433 ISS (ZARYA) 1 25544U 98067A 21251.34072397 .00001336 00000-0 32813-4 0 9990 2 25544 51.6450 291.5466 0003326 8.0690 97.9802 15.48608682301482 CXO 1 25867U 99040B 21252.73879959 .00000834 00000-0 00000-0 0 9994 2 25867 53.0304 251.6103 8447766 227.1534 0.7197 0.37814243 10769 ____________________________________________________________________ These 2-Line ...Continue Reading

[list_settings.list_name] Current TLEs

September 7th 2021 PST

HST 1 20580U 90037B 21249.70968678 .00000692 00000-0 30813-4 0 9999 2 20580 28.4693 247.4010 0002529 213.3620 309.8065 15.09725097523288 ISS (ZARYA) 1 25544U 98067A 21249.97676126 .00002569 00000-0 55501-4 0 9994 2 25544 51.6454 298.2897 0003244 3.7159 53.2605 15.48608535301279 CXO 1 25867U 99040B 21250.09332627 .00000895 00000-0 00000-0 0 9994 2 25867 53.1306 251.7815 8446654 227.0925 0.6253 0.37814126 10741 ____________________________________________________________________ These 2-Line ...Continue Reading

[list_settings.list_name] Current TLEs

September 6th 2021 PST

HST 1 20580U 90037B 21248.71810168 .00000679 00000-0 30051-4 0 9998 2 20580 28.4694 253.9630 0002563 202.2729 320.9371 15.09724039523137 ISS (ZARYA) 1 25544U 98067A 21249.46949571 .00002601 00000-0 56085-4 0 9990 2 25544 51.6451 300.7969 0003220 1.5252 105.5886 15.48605595301195 CXO 1 25867U 99040B 21250.09332627 .00000895 00000-0 00000-0 0 9994 2 25867 53.1306 251.7815 8446654 227.0925 0.6253 0.37814126 10741 ____________________________________________________________________ These 2-Line ...Continue Reading

[list_settings.list_name] Current TLEs

September 5th 2021 PST

HST 1 20580U 90037B 21247.52145059 .00000667 00000-0 29304-4 0 9992 2 20580 28.4695 261.8820 0002608 188.9951 297.5161 15.09722801522954 ISS (ZARYA) 1 25544U 98067A 21248.17951969 .00002292 00000-0 50423-4 0 9997 2 25544 51.6456 307.1733 0003179 356.9369 113.8598 15.48596913300991 CXO 1 25867U 99040B 21250.09332627 .00000895 00000-0 00000-0 0 9994 2 25867 53.1306 251.7815 8446654 227.0925 0.6253 0.37814126 10741 ____________________________________________________________________ These 2-Line ...Continue Reading
  • This mailing list is a public mailing list - anyone may join or leave, at any time.
  • This mailing list is announce-only.

International Space Station (ISS) / Hubble Space Telescope (HST) / Chandra X-Ray Observatory Orbital Data via EMAIL

Privacy Policy:

Private list